TimeCST,TemperatureF,Dew PointF,Humidity,Sea Level PressureIn,VisibilityMPH,Wind Direction,Wind SpeedMPH,Gust SpeedMPH,PrecipitationIn,Events,Conditions,WindDirDegrees,DateUTC
12:10 AM,33.1,30.9,92,30.01,10.0,ESE,10.4,-,0.00,Rain,Light Rain,110,2013-02-21 06:10:00
12:20 AM,33.1,32.0,96,30.01,10.0,East,8.1,-,0.00,Rain,Light Rain,100,2013-02-21 06:20:00
12:53 AM,33.1,30.9,92,30.00,10.0,East,10.4,-,0.00,Rain,Light Rain,100,2013-02-21 06:53:00
1:07 AM,33.1,30.9,92,29.98,8.0,East,9.2,-,0.02,Rain,Light Rain,90,2013-02-21 07:07:00
1:14 AM,33.1,30.9,92,29.97,7.0,East,11.5,-,0.03,Rain,Light Rain,90,2013-02-21 07:14:00
1:53 AM,33.1,32.0,96,29.94,4.0,East,16.1,23.0,0.10,Rain,Rain,90,2013-02-21 07:53:00
2:53 AM,34.0,34.0,100,29.88,10.0,East,9.2,-,0.07,,Overcast,90,2013-02-21 08:53:00
3:05 AM,34.0,34.0,100,29.85,10.0,East,10.4,-,N/A,Thunderstorm,Thunderstorm,80,2013-02-21 09:05:00
3:16 AM,34.0,34.0,100,29.82,10.0,East,13.8,20.7,0.00,Rain-Thunderstorm,Thunderstorms and Rain,80,2013-02-21 09:16:00
3:24 AM,34.0,34.0,100,29.83,7.0,East,9.2,-,0.00,Rain-Thunderstorm,Light Thunderstorms and Rain,80,2013-02-21 09:24:00
3:53 AM,34.0,34.0,100,29.86,6.0,ENE,5.8,-,0.03,Rain-Thunderstorm,Light Thunderstorms and Rain,60,2013-02-21 09:53:00
3:57 AM,34.0,33.1,96,29.83,4.0,ENE,5.8,-,N/A,Rain-Thunderstorm,Heavy Thunderstorms and Rain,60,2013-02-21 09:57:00
4:03 AM,34.0,33.1,96,29.81,7.0,East,10.4,-,0.04,Rain-Thunderstorm,Light Thunderstorms and Rain,80,2013-02-21 10:03:00
4:47 AM,33.8,33.8,100,29.78,10.0,East,8.1,-,0.11,Rain,Light Rain,80,2013-02-21 10:47:00
4:53 AM,33.1,33.1,100,29.78,10.0,ENE,8.1,-,0.11,Rain,Light Rain,70,2013-02-21 10:53:00
5:13 AM,33.1,33.1,100,29.78,10.0,East,8.1,-,0.02,Rain,Light Rain,80,2013-02-21 11:13:00
5:17 AM,33.1,33.1,100,29.78,8.0,ENE,8.1,-,0.02,Rain,Light Rain,70,2013-02-21 11:17:00
5:33 AM,33.1,33.1,100,29.78,10.0,ENE,6.9,-,0.03,,Overcast,60,2013-02-21 11:33:00
5:53 AM,33.1,33.1,100,29.78,10.0,ENE,8.1,-,0.03,Rain,Light Rain,70,2013-02-21 11:53:00
6:05 AM,33.1,33.1,100,29.79,9.0,North,5.8,-,0.01,Rain-Thunderstorm,Light Thunderstorms and Rain,10,2013-02-21 12:05:00
6:14 AM,33.1,33.1,100,29.77,5.0,NNE,4.6,-,0.02,Rain-Thunderstorm,Light Thunderstorms and Rain,30,2013-02-21 12:14:00
6:25 AM,33.1,33.1,100,29.83,4.0,WNW,16.1,-,0.02,Rain-Thunderstorm,Light Thunderstorms and Rain,290,2013-02-21 12:25:00
6:31 AM,33.1,33.1,100,29.80,4.0,North,6.9,-,0.03,Rain-Thunderstorm,Thunderstorms and Rain,360,2013-02-21 12:31:00
6:49 AM,32.0,32.0,100,29.85,3.0,NW,12.7,-,0.09,Rain-Thunderstorm,Thunderstorms and Rain,310,2013-02-21 12:49:00
6:53 AM,32.0,32.0,100,29.82,3.0,NNW,11.5,-,N/A,Rain-Thunderstorm,Thunderstorms and Rain,340,2013-02-21 12:53:00
7:16 AM,32.0,32.0,100,29.83,2.5,NNW,12.7,-,0.02,Rain-Thunderstorm,Light Thunderstorms and Rain,340,2013-02-21 13:16:00
7:26 AM,32.0,32.0,100,29.81,3.0,North,12.7,-,0.02,Rain,Light Rain,360,2013-02-21 13:26:00
7:39 AM,32.0,32.0,100,29.86,3.0,NW,12.7,-,0.03,Rain,Light Freezing Rain,320,2013-02-21 13:39:00
7:45 AM,32.0,32.0,100,29.81,3.0,North,12.7,-,0.03,Rain-Thunderstorm,Light Freezing Rain,360,2013-02-21 13:45:00
7:53 AM,32.0,32.0,100,29.82,2.0,North,10.4,-,N/A,Rain-Thunderstorm,Light Freezing Rain,10,2013-02-21 13:53:00
8:07 AM,32.0,32.0,100,29.79,2.0,NE,13.8,-,0.01,Rain-Thunderstorm,Light Freezing Rain,50,2013-02-21 14:07:00
8:25 AM,32.0,32.0,100,29.77,2.0,NE,17.3,-,0.09,Rain-Thunderstorm,Light Freezing Rain,40,2013-02-21 14:25:00
8:29 AM,32.0,32.0,100,29.79,1.2,ENE,13.8,-,0.12,Rain-Thunderstorm,Heavy Freezing Rain,70,2013-02-21 14:29:00
8:46 AM,32.0,32.0,100,29.77,1.5,ENE,13.8,-,0.21,Rain-Thunderstorm,Light Freezing Rain,70,2013-02-21 14:46:00
8:53 AM,32.0,32.0,100,29.81,1.2,NE,8.1,-,0.26,Rain-Thunderstorm,Light Freezing Rain,40,2013-02-21 14:53:00
8:58 AM,32.0,32.0,100,29.80,1.5,North,8.1,-,N/A,Rain-Thunderstorm,Light Freezing Rain,360,2013-02-21 14:58:00
9:19 AM,32.0,32.0,100,29.82,1.5,NE,8.1,-,0.08,Rain,Light Freezing Rain,50,2013-02-21 15:19:00
9:35 AM,32.0,32.0,100,29.82,2.5,ENE,6.9,-,0.11,Rain,Light Freezing Rain,60,2013-02-21 15:35:00
9:44 AM,33.1,33.1,100,29.82,3.0,East,5.8,-,0.11,Rain,Light Freezing Rain,90,2013-02-21 15:44:00
9:53 AM,33.1,33.1,100,29.82,5.0,East,5.8,-,0.11,Rain,Light Rain,80,2013-02-21 15:53:00
10:53 AM,34.0,34.0,100,29.78,9.0,East,11.5,-,0.00,,Overcast,100,2013-02-21 16:53:00
11:53 AM,35.1,35.1,100,29.74,10.0,East,9.2,-,N/A,,Overcast,100,2013-02-21 17:53:00
12:53 PM,35.1,35.1,100,29.71,10.0,SE,12.7,-,N/A,,Overcast,130,2013-02-21 18:53:00
1:53 PM,36.0,34.0,93,29.70,10.0,SSE,11.5,-,N/A,,Overcast,150,2013-02-21 19:53:00
2:24 PM,35.1,34.0,96,29.70,2.0,South,9.2,-,0.00,,Light Drizzle,170,2013-02-21 20:24:00
2:53 PM,35.1,35.1,100,29.72,2.0,South,6.9,-,0.00,,Light Drizzle,180,2013-02-21 20:53:00
3:53 PM,35.1,34.0,96,29.73,5.5,South,9.2,-,0.01,,Light Drizzle,170,2013-02-21 21:53:00
4:05 PM,35.1,34.0,96,29.72,1.5,South,6.9,-,0.00,,Light Drizzle,170,2013-02-21 22:05:00
4:37 PM,35.1,34.0,96,29.74,1.5,South,6.9,-,0.00,,Light Drizzle,190,2013-02-21 22:37:00
4:53 PM,35.1,34.0,96,29.75,1.5,South,6.9,-,0.00,,Light Drizzle,190,2013-02-21 22:53:00
5:53 PM,35.1,35.1,100,29.78,1.5,SSW,8.1,-,0.00,,Light Drizzle,200,2013-02-21 23:53:00
6:10 PM,35.1,34.0,96,29.78,1.5,SSW,8.1,-,0.00,,Light Drizzle,200,2013-02-22 00:10:00
6:49 PM,35.6,33.8,93,29.79,3.0,Variable,4.6,-,0.00,,Light Drizzle,0,2013-02-22 00:49:00
6:53 PM,35.1,34.0,96,29.81,3.0,SSW,4.6,-,0.00,,Light Drizzle,210,2013-02-22 00:53:00
7:53 PM,36.0,34.0,93,29.82,7.0,West,10.4,-,0.00,,Overcast,270,2013-02-22 01:53:00
8:01 PM,36.0,34.0,93,29.81,10.0,West,8.1,-,N/A,,Overcast,260,2013-02-22 02:01:00
8:53 PM,36.0,33.1,89,29.84,10.0,West,11.5,-,N/A,,Overcast,260,2013-02-22 02:53:00
9:46 PM,32.0,28.9,88,29.89,10.0,West,17.3,21.9,N/A,,Overcast,270,2013-02-22 03:46:00
9:53 PM,32.0,28.0,85,29.91,10.0,West,15.0,-,N/A,,Overcast,260,2013-02-22 03:53:00
10:10 PM,30.9,27.0,85,29.90,10.0,West,19.6,-,N/A,,Overcast,260,2013-02-22 04:10:00
10:53 PM,30.0,24.1,79,29.94,10.0,West,17.3,-,N/A,,Scattered Clouds,270,2013-02-22 04:53:00
11:53 PM,27.0,19.0,72,29.98,10.0,West,18.4,-,N/A,,Partly Cloudy,280,2013-02-22 05:53:00